Terminal Aerodrome Forecast
Issued by NWS

Home | Current Version | Previous Version | Text Only | Print | Product List | Glossary On
Versions: 1 2 3 4 5 6 7 8 9 10 11 12 13 14 15 16 17 18 19 20 21 22 23 24 25 26 27 28
000
FTUS46 KOTX 310520
TAFCOE
TAF
KCOE 310520Z 3106/0106 21007KT P6SM SCT060 BKN080
     FM311100 20007KT P6SM SCT020 BKN070
      TEMPO 3112/3116 BKN020
     FM311700 23010KT P6SM SCT045 BKN080
     FM010300 20005KT P6SM SCT070 SCT150
      AMD LTD TO CLD AND VIS=

USA.gov is the U.S. government's official web portal to all federal, state and local government web resources and services.